Location: Quaker Farms
(41.4276°N, 73.1557°W)
Time: 02:09:10
(UTC+00:00)

Altair - Pass Details

Date: 20 June 2021
Orbit: 1501 x 1682 km, 47.2° (Epoch: 23 July)

Event Time Altitude Azimuth Distance (km) Brightness Sun altitude
Rises 01:54:16 0° 294° (WNW) 4,871 11.4 -12.9°
Reaches altitude 10° 01:58:03 10° 283° (WNW) 3,904 10.5 -13.4°
Maximum altitude 02:05:45 26° 232° (SW) 2,864 8.9 -14.3°
Drops below altitude 10° 02:13:32 10° 181° (S) 3,934 9.2 -15.2°
Enters shadow 02:13:56 - 179° (S) 4,029 9.2 -15.3°
Sets 02:17:24 0° 169° (S) 4,916 - -15.7°
